This is the latest recevied weather packets stored in our database for station/object KA1JKB. If no packets are shown the sender has not sent any weather packets the latest 10 day(s).
| Time | Temp. | Humidity | Pressure | Rain* | Wind** | Luminosity | Snow |
|---|---|---|---|---|---|---|---|
| 1788113754 | 21.11° C | 94% | 1014.9 hPa | 0 mm | - | 251 W/m² | - |
| 1788113453 | 21.11° C | 94% | 1014.8 hPa | 0 mm | - | 140 W/m² | - |
| 1788113152 | 21.11° C | 95% | 1014.8 hPa | 0 mm | - | 142 W/m² | - |
| 1788112852 | 21.11° C | 94% | 1014.9 hPa | 0 mm | - | 166 W/m² | - |
| 1788112551 | 21.11° C | 95% | 1014.8 hPa | 0 mm | - | 161 W/m² | - |
| 1788112246 | 21.11° C | 95% | 1015 hPa | 0 mm | - | 201 W/m² | - |
| 1788111942 | 21.11° C | 95% | 1014.8 hPa | 0 mm | - | 231 W/m² | - |
| 1788111637 | 21.11° C | 96% | 1015.1 hPa | 0 mm | - | 254 W/m² | - |
| 1788111333 | 21.11° C | 96% | 1014.8 hPa | 0 mm | - | 320 W/m² | - |
| 1788111027 | 21.11° C | 97% | 1014.8 hPa | 0 mm | - | 372 W/m² | - |
| 1788110724 | 21.11° C | 97% | 1015 hPa | 0 mm | - | 271 W/m² | - |
| 1788110420 | 20.56° C | 97% | 1015.5 hPa | 0 mm | - | 280 W/m² | - |
| 1788110122 | 20.56° C | 97% | 1015.6 hPa | 0 mm | - | 253 W/m² | - |
| 1788109815 | 20.56° C | 97% | 1015.7 hPa | 0 mm | - | 241 W/m² | - |
| 1788109515 | 20° C | 98% | 1015.8 hPa | 0 mm | - | 246 W/m² | - |
| 1788109214 | 20° C | 98% | 1016.4 hPa | 0 mm | - | 263 W/m² | - |
| 1788108910 | 20° C | 99% | 1016.2 hPa | 0 mm | - | 268 W/m² | - |
| 1788108605 | 20° C | 99% | 1016.6 hPa | 0 mm | - | 224 W/m² | - |
| 1788108301 | 19.44° C | 99% | 1016.5 hPa | 0 mm | - | 204 W/m² | - |
| 1788107997 | 20° C | 99% | 1016.5 hPa | 0 mm | - | 221 W/m² | - |
| 1788107693 | 19.44° C | 99% | 1016.6 hPa | 1.78 mm | - | 253 W/m² | - |
| 1788107392 | 19.44° C | 99% | 1016.7 hPa | 1.78 mm | - | 201 W/m² | - |
| 1788107089 | 18.89° C | 99% | 1016.5 hPa | 0 mm | - | 128 W/m² | - |
| 1788106788 | 18.89° C | 99% | 1016.7 hPa | 0 mm | - | 102 W/m² | - |
| 1788106483 | 18.89° C | 99% | 1016.7 hPa | 0 mm | - | 101 W/m² | - |
* Rain latest hour (hover to see other rain measurements)
** Current wind speed in m/s (hover to see current wind gust speed)